Weather Roundup
Issued by NWS

Home | Current Version | Previous Version | Text Only | Print | Product List | Glossary On
Versions: 1 2 3 4 5 6 7 8 9 10 11 12 13 14 15 16 17 18 19 20 21 22 23 24 25 26 27 28 29 30 31 32 33 34 35 36 37 38 39 40 41 42 43 44 45 46 47 48 49 50
000
NZUS93 KARX 021710
HRRWXR

CURRENT HOURLY OBSERVATIONS ACROSS
MUCH OF THE UPPER MISSISSIPPI VALLEY
NATIONAL WEATHER SERVICE LA CROSSE WI
1200 PM CDT THU JUL 02 2015


...SOUTHEAST MINNESOTA...


CITY           SKY/WX    TMP DP  RH WIND       PRES   REMARKS
ROCHESTER      SUNNY     69  54  58 SE5       30.05F
ROCHESTER/MAYO FAIR      71  51  49 SE6       30.05S
WINONA         SUNNY     70  52  52 SE3       30.04F
AUSTIN         MOSUNNY   72  52  49 E8        30.04S
ALBERT LEA     MOSUNNY   70  50  49 S7        30.04S HAZE
DODGE CENTER   SUNNY     70  54  56 E6        30.05S
PRESTON        SUNNY     66  51  57 SE3       30.05F
OWATONNA       SUNNY     72  50  46 SE9       30.04S
FARIBAULT      MOSUNNY   72  54  53 SE6       30.04F
$$

...ELSEWHERE IN MINNESOTA...


CITY           SKY/WX    TMP DP  RH WIND       PRES   REMARKS
MINNEAPOLIS    MOSUNNY   73  54  51 SE5       30.03F
INTNL FALLS    SUNNY     73  61  65 W6        29.97F
DULUTH         MOSUNNY   74  57  55 W9        30.02F
RED WING       SUNNY     73  57  56 CALM      30.02F
REDWOOD FALLS  SUNNY     71  48  43 SE12      30.01F
MANKATO        MOSUNNY   70  54  56 SE9       30.04S
WORTHINGTON    CLOUDY    64  52  63 SE8       30.02F
FAIRMONT       MOSUNNY   68  48  49 SE9       30.03S
$$

...SOUTHWEST WISCONSIN...


CITY           SKY/WX    TMP DP  RH WIND       PRES   REMARKS
LA CROSSE      MOSUNNY   70  52  52 CALM      30.05
PRAIRIE DU CHI NOT AVBL
BOSCOBEL       MOSUNNY   69  52  54 VRB7      30.05F
LONE ROCK      SUNNY     68  48  48 N7        30.06F
PLATTEVILLE    NOT AVBL
FORT MC COY    NOT AVBL
CAMP DOUGLAS   SUNNY     68  55  62 VRB1      30.06F
VIROQUA        NOT AVBL
WIS DELLS      SUNNY     66  47  51 N6        30.06F
$$

...ELSEWHERE IN WISCONSIN...


CITY           SKY/WX    TMP DP  RH WIND       PRES   REMARKS
MILWAUKEE      MOSUNNY   61  50  67 NE10      30.06R
MADISON        SUNNY     65  46  50 E9        30.05F
GREEN BAY      SUNNY     70  51  51 NE8       30.07S
EAU CLAIRE     SUNNY     70  51  51 S5        30.04F
BLACK RVR FLS  NOT AVBL
MEDFORD        NOT AVBL
WAUSAU         SUNNY     70  44  39 VRB5      30.06F
WIS RAPIDS     SUNNY     70  44  39 NE7       30.08S
MARSHFIELD     SUNNY     69  49  48 SE6       30.07S
RICE LAKE      SUNNY     71  47  43 E7        30.06F
$$

...NORTHEAST IOWA...


CITY           SKY/WX    TMP DP  RH WIND       PRES   REMARKS
DECORAH        NOT AVBL
MASON CITY     PTSUNNY   70  55  59 E14       30.04F
CHARLES CITY   NOT AVBL
OELWEIN        NOT AVBL
$$

...ELSEWHERE IN IOWA...


CITY           SKY/WX    TMP DP  RH WIND       PRES   REMARKS
DES MOINES     CLOUDY    68  56  65 E9        29.98F
IOWA CITY      PTSUNNY   70  51  51 E10       30.01F
FORT DODGE     PTSUNNY   68  57  68 SE10      30.02S
$$

...NORTHERN ILLINOIS...


CITY           SKY/WX    TMP DP  RH WIND       PRES   REMARKS
CHICAGO-OHARE  MOSUNNY   66  54  65 NE15      30.01S
CHICAGO-MIDWAY MOSUNNY   70  57  63 NE13      30.00S
MOLINE         PTSUNNY   69  55  60 E10       29.99S
ROCKFORD       PTSUNNY   68  52  56 NE13      30.03F
PEORIA         PTSUNNY   69  56  62 NE9       29.98F
$$

NOTE: "FAIR" INDICATES FEW OR NO CLOUDS BELOW 12,000 FEET WITH NO
SIGNIFICANT WEATHER AND/OR OBSTRUCTIONS TO VISIBILITY. WIND
SPEEDS ARE IN MILES-PER-HOUR.



USA.gov is the U.S. government's official web portal to all federal, state and local government web resources and services.